Flag for Norway Weather past 2 weeks in Longyearbyen, Svalbard, Norway

Now
30 °F

Partly sunny.


Feels Like: 23 °F
Forecast: 28 / 34 °F
Wind: 8 mph from Northeast

Location: Svalbard Lufthavn

Current Time: May 23, 2015 at 9:21:51 AM

Latest Report: May 23, 2015 at 8:50 AM


Visibility: N/A

Pressure: 29.50 "Hg

Humidity: 59%

Dew point: 18 °F

Location of LongyearbyenLocation

Historic Weather in Longyearbyen — Graph

°F

Longyearbyen temperature yesterday

Maximum temperature yesterday: 36 °F (at 12:50 AM)
Minimum temperature yesterday: 30 °F (at 4:50 PM)
Average temperature yesterday: 32 °F

Past Weeks' High & Low Weather Summary

 TemperatureHumidityPressure
High37 °F (May 16, 9:50 AM)93% (May 18, 9:50 PM)30.09 "Hg (May 18, 9:50 PM)
Low14 °F (May 13, 5:50 AM)55% (May 8, 5:50 PM)29.42 "Hg (May 22, 5:50 AM)
Average28 °F73%29.86 "Hg
* Reported May 8 7:50 AM — May 23 7:57 AM, Longyearbyen, Weather by CustomWeather, © 2015

Note: Actual official high and low records may vary slightly from our data, if they occured in-between our weather recording intervals... More about our weather records

Advertising

Longyearbyen weather history for previous 24 hours

 ConditionsComfort  
Time TempWeatherWind HumidityBarometerVisibility
7:57 AM
Sat, May 23
28 °FPartly sunny.12 mph64%29.50 "HgN/A
6:50 AM28 °FPartly sunny.14 mph69%29.50 "HgN/A
5:50 AM28 °FMore clouds than sun.13 mph69%29.50 "HgN/A
4:50 AM28 °FPartly sunny.10 mph69%29.50 "HgN/A
3:50 AM28 °FBroken clouds.10 mph64%29.50 "HgN/A
2:50 AM28 °FBroken clouds.12 mph74%29.50 "HgN/A
1:50 AM28 °FBroken clouds.13 mph69%29.50 "HgN/A
12:50 AM28 °FBroken clouds.12 mph74%29.47 "HgN/A
11:50 PM
Fri, May 22
30 °FBroken clouds.13 mph69%29.47 "HgN/A
10:50 PM30 °FPartly sunny.9 mph64%29.47 "HgN/A
9:50 PM30 °FPartly sunny.12 mph64%29.47 "HgN/A
8:50 PM30 °FPartly sunny.12 mph64%29.47 "HgN/A
7:50 PM30 °FPartly sunny.14 mph69%29.45 "HgN/A
6:50 PM30 °FPartly sunny.15 mph69%29.45 "HgN/A
5:50 PM30 °FBroken clouds.12 mph69%29.45 "HgN/A
4:50 PM30 °FBroken clouds.10 mph69%29.45 "HgN/A
3:50 PM32 °FBroken clouds.9 mph69%29.45 "HgN/A
2:50 PM32 °FScattered clouds.8 mph75%29.45 "HgN/A
1:50 PM32 °FScattered clouds.9 mph75%29.45 "HgN/A
1:12 PM32 °FScattered clouds.10 mph69%29.45 "HgN/A
11:50 AM32 °FPartly sunny.9 mph75%29.42 "HgN/A
10:50 AM32 °FLight snow. Partly sunny.8 mph80%29.42 "HgN/A
9:50 AM34 °FPartly sunny.3 mph75%29.42 "HgN/A
Weather by CustomWeather, © 2015

See weather overviewHow to use our weather pages